Погода в Евдакове

Россия / Воронежская область     50°45′09″N   39°23′33″E
В апреле 2022 года жителям России запретили посещать сайт meteo.paraplan.net по решению Генеральной прокуратуры. Аудитория сайта уменьшилась в 10 раз. Владельцы сайта не видят смысла в поддержке погодного сервера в таких условиях. Сайт будет закрыт в октябре.
темп.,
°C
ветер,
м/с
пор.,
м/с
влажн.,
%
обл.,
%
осадки,
мм/ч
давл.,
гПа
погр.,
м
5 октября, ср
ср500:00+9юз3781100 0.0 1016193
03:00+8юз5108572 0.0 1017457
06:00+8ююз41084100 0.0 1018425
09:00+9юз6118094 0.0 1019572
12:00+10зюз71080100 0.1 1020899
15:00+11зюз7972100 0.3 10201319
18:00+10з587668 0.5 1021620
21:00+7зюз488981 0.6 1022275
6 октября, чт
чт600:00+6з49935 0.0 1023266
03:00+5з499624 0.0 1024222
06:00+5з489519 0.0 1024189
09:00+8з478476 0.0 1024313
12:00+13з676568 0.0 10241101
15:00+13з576888 0.0 10231106
18:00+12зюз4876100 0.0 1023291
21:00+11зюз487983 0.0 1023327
7 октября, пт
пт700:00+9зюз37902 0.0 1024142
03:00+8зюз37925 0.0 1023140
06:00+8зюз48933 0.0 1023155
09:00+12з587954 0.0 1023327
12:00+16сз576738 0.0 1023744
15:00+17ссз56582 0.0 10231091
18:00+12с47770 0.0 1025150
21:00+9с33880 0.0 102751
8 октября, сб
сб800:00+9с22870 0.0 102715
03:00+8ссв11890 0.0 102710
06:00+7всв11910 0.0 102810
09:00+11в22760 0.0 1028213
12:00+15юв22550 0.0 1027693
15:00+17юв23460 0.0 1025931
18:00+13вюв22610 0.0 102516
21:00+11юв22665 0.0 102418
9 октября, вс
вс900:00+10юв33665 0.0 102434
03:00+9ююв33695 0.0 102333
06:00+8ююв338016 0.0 102342
09:00+12ююв476971 0.0 1022265
12:00+17ююв575333 0.0 1020870
15:00+18ю454723 0.0 10181340
18:00+15ююв2259100 0.0 101812
21:00+13ююз2259100 0.0 101814